This is the latest recevied weather packets stored in our database for station/object KD8JAM. If no packets are shown the sender has not sent any weather packets the latest 10 day(s).
| Time | Temp. | Humidity | Pressure | Rain* | Wind** | Luminosity | Snow |
|---|---|---|---|---|---|---|---|
| 1777992946 | 1.67° C | 87% | 1006 hPa | 0 mm | - | 109 W/m² | - |
| 1777992645 | 1.11° C | 88% | 1005.9 hPa | 0 mm | - | 138 W/m² | - |
| 1777992343 | 1.11° C | 89% | 1005.9 hPa | 0 mm | - | 132 W/m² | - |
| 1777992039 | 1.67° C | 87% | 1006 hPa | 0 mm | - | 136 W/m² | - |
| 1777991737 | 1.67° C | 89% | 1005.9 hPa | 0 mm | - | 106 W/m² | - |
| 1777991434 | 1.67° C | 88% | 1005.6 hPa | 0 mm | - | 84 W/m² | - |
| 1777991131 | 1.67° C | 88% | 1005.7 hPa | 0 mm | - | 78 W/m² | - |
| 1777990828 | 1.67° C | 89% | 1005.5 hPa | 0 mm | - | 108 W/m² | - |
| 1777990526 | 1.67° C | 89% | 1005.3 hPa | 0 mm | - | 127 W/m² | - |
| 1777989919 | 1.67° C | 89% | 1005.2 hPa | 0 mm | - | 131 W/m² | - |
| 1777989616 | 1.67° C | 89% | 1005.1 hPa | 0 mm | - | 113 W/m² | - |
| 1777989312 | 1.67° C | 88% | 1005 hPa | 0 mm | - | 117 W/m² | - |
| 1777989009 | 1.67° C | 89% | 1004.8 hPa | 0 mm | - | 131 W/m² | - |
| 1777988705 | 1.67° C | 88% | 1005 hPa | 0 mm | - | 145 W/m² | - |
| 1777988401 | 1.67° C | 89% | 1004.8 hPa | 0 mm | - | 129 W/m² | - |
| 1777988099 | 1.67° C | 90% | 1005 hPa | 0 mm | - | 117 W/m² | - |
| 1777987794 | 1.67° C | 91% | 1004.8 hPa | 0 mm | - | 109 W/m² | - |
| 1777987491 | 1.67° C | 91% | 1004.8 hPa | 0 mm | - | 112 W/m² | - |
| 1777987189 | 1.67° C | 92% | 1004.9 hPa | 0 mm | - | 108 W/m² | - |
| 1777986885 | 1.67° C | 92% | 1004.9 hPa | 0 mm | - | 117 W/m² | - |
| 1777986584 | 1.67° C | 93% | 1004.5 hPa | 0 mm | - | 117 W/m² | - |
| 1777986281 | 1.67° C | 92% | 1005 hPa | 0 mm | - | 99 W/m² | - |
| 1777985979 | 1.67° C | 91% | 1004.9 hPa | 0 mm | - | 99 W/m² | - |
| 1777985676 | 1.67° C | 89% | 1004.7 hPa | 0 mm | - | 90 W/m² | - |
| 1777985372 | 2.22° C | 87% | 1004.5 hPa | 0 mm | - | 65 W/m² | - |
* Rain latest hour (hover to see other rain measurements)
** Current wind speed in m/s (hover to see current wind gust speed)